GEC8225 MMSM-MMGL

Flight info

Callsign GEC8225
Flight time 0h 54m
Altitude 34000
Route OVAGO2H OVAGO UT123 IGSON IGSON1B
Aircraft B77L/H-SDE2E3FGHIJ1J3J4J5M1P2RWXYZ/LB1D1

Departure

Time 2026-04-25 01:43
Airport Felipe Ángeles International Airport (MMSM)

Arrival

Time 2026-04-25 02:37
Airport Guadalajara International Airport (MMGL)
Time Latitude Longitude Altitude Speed Heading
2026-04-25 01:05 19.75435 -99.00808 7376 ft 0 kts 139°
2026-04-25 01:34 19.75437 -99.00809 7376 ft 1 kts 139°
2026-04-25 01:34 19.75448 -99.00819 7376 ft 2 kts 139°
2026-04-25 01:35 19.75459 -99.00830 7376 ft 2 kts 139°
2026-04-25 01:35 19.75470 -99.00840 7376 ft 2 kts 139°
2026-04-25 01:35 19.75477 -99.00846 7376 ft 1 kts 139°
2026-04-25 01:35 19.75487 -99.00857 7376 ft 2 kts 116°
2026-04-25 01:36 19.75491 -99.00873 7376 ft 2 kts 94°
2026-04-25 01:36 19.75490 -99.00888 7376 ft 2 kts 73°
2026-04-25 01:36 19.75484 -99.00903 7376 ft 1 kts 52°
2026-04-25 01:36 19.75480 -99.00907 7376 ft 0 kts 48°
2026-04-25 01:39 19.75483 -99.00905 7376 ft 2 kts 48°
2026-04-25 01:39 19.75505 -99.00877 7376 ft 7 kts 48°
2026-04-25 01:40 19.75554 -99.00828 7376 ft 11 kts 19°
2026-04-25 01:40 19.75639 -99.00833 7376 ft 13 kts 30°
2026-04-25 01:40 19.75717 -99.00751 7376 ft 16 kts 49°
2026-04-25 01:40 19.75788 -99.00663 7376 ft 14 kts 49°
2026-04-25 01:41 19.75846 -99.00592 7376 ft 11 kts 47°
2026-04-25 01:41 19.75909 -99.00597 7376 ft 9 kts 325°
2026-04-25 01:41 19.75959 -99.00639 7376 ft 9 kts 319°
2026-04-25 01:41 19.76010 -99.00687 7376 ft 9 kts 317°
2026-04-25 01:42 19.76037 -99.00744 7376 ft 9 kts 250°
2026-04-25 01:42 19.75991 -99.00808 7376 ft 19 kts 229°
2026-04-25 01:42 19.75749 -99.01101 7376 ft 86 kts 229°
2026-04-25 01:42 19.75211 -99.01764 7377 ft 150 kts 229°
2026-04-25 01:43 19.74387 -99.02768 7411 ft 203 kts 226°
2026-04-25 01:43 19.73504 -99.03848 8137 ft 201 kts 228°
2026-04-25 01:43 19.72557 -99.05006 8578 ft 216 kts 229°
2026-04-25 01:43 19.71537 -99.06255 8916 ft 232 kts 229°
2026-04-25 01:44 19.70449 -99.07584 9235 ft 250 kts 229°
2026-04-25 01:44 19.69256 -99.09042 9609 ft 268 kts 230°
2026-04-25 01:44 19.68001 -99.10574 10017 ft 285 kts 230°
2026-04-25 01:44 19.66680 -99.12187 10504 ft 299 kts 230°
2026-04-25 01:45 19.65260 -99.13921 10952 ft 316 kts 230°
2026-04-25 01:45 19.63804 -99.15698 11405 ft 332 kts 230°
2026-04-25 01:45 19.62237 -99.17609 11870 ft 348 kts 231°
2026-04-25 01:45 19.60648 -99.19524 12322 ft 363 kts 227°
2026-04-25 01:46 19.58612 -99.21262 12742 ft 381 kts 212°
2026-04-25 01:46 19.56076 -99.22134 13540 ft 383 kts 182°
2026-04-25 01:46 19.53551 -99.21677 14691 ft 373 kts 158°
2026-04-25 01:46 19.51328 -99.20243 15105 ft 387 kts 139°
2026-04-25 01:47 19.49359 -99.18179 15459 ft 402 kts 135°
2026-04-25 01:47 19.47215 -99.16317 16429 ft 397 kts 147°
2026-04-25 01:47 19.44890 -99.14809 17575 ft 387 kts 149°
2026-04-25 01:47 19.42617 -99.13382 18659 ft 377 kts 149°
2026-04-25 01:48 19.40379 -99.12109 19660 ft 367 kts 154°
2026-04-25 01:48 19.38058 -99.11115 20624 ft 359 kts 162°
2026-04-25 01:48 19.35669 -99.10476 21322 ft 358 kts 172°
2026-04-25 01:48 19.33173 -99.10259 21836 ft 362 kts 182°
2026-04-25 01:49 19.30633 -99.10502 22324 ft 365 kts 193°
2026-04-25 01:49 19.28178 -99.11215 22910 ft 365 kts 203°
2026-04-25 01:49 19.25880 -99.12367 23478 ft 365 kts 214°
2026-04-25 01:49 19.23853 -99.13984 23994 ft 364 kts 227°
2026-04-25 01:50 19.22218 -99.16064 24398 ft 367 kts 240°
2026-04-25 01:50 19.21069 -99.18474 24525 ft 378 kts 253°
2026-04-25 01:50 19.20466 -99.21214 24582 ft 392 kts 266°
2026-04-25 01:50 19.20528 -99.24159 24648 ft 406 kts 280°
2026-04-25 01:51 19.21156 -99.27101 24748 ft 421 kts 285°
2026-04-25 01:51 19.21921 -99.30182 24875 ft 437 kts 285°
2026-04-25 01:51 19.22706 -99.33415 25153 ft 448 kts 282°
2026-04-25 01:51 19.23082 -99.36682 25734 ft 452 kts 272°
2026-04-25 01:52 19.22913 -99.40047 26501 ft 453 kts 263°
2026-04-25 01:52 19.22362 -99.43414 27249 ft 453 kts 261°
2026-04-25 01:52 19.21774 -99.46705 27856 ft 457 kts 261°
2026-04-25 01:52 19.21169 -99.50076 28412 ft 461 kts 261°
2026-04-25 01:53 19.20566 -99.53436 29030 ft 463 kts 261°
2026-04-25 01:53 19.19955 -99.56842 29370 ft 469 kts 261°
2026-04-25 01:53 19.18734 -99.63639 29405 ft 467 kts 261°
2026-04-25 01:54 19.17506 -99.70465 29423 ft 469 kts 260°
2026-04-25 01:54 19.16298 -99.77278 29434 ft 468 kts 263°
2026-04-25 01:55 19.16210 -99.84130 29438 ft 467 kts 274°
2026-04-25 01:55 19.16665 -99.90939 29443 ft 466 kts 274°
2026-04-25 01:56 19.17127 -99.97865 29441 ft 466 kts 274°
2026-04-25 01:56 19.17585 -100.04794 29414 ft 466 kts 274°
2026-04-25 01:57 19.18626 -100.15088 29360 ft 470 kts 284°
2026-04-25 01:57 19.19602 -100.18412 29701 ft 477 kts 288°
2026-04-25 01:58 19.20658 -100.21726 30636 ft 472 kts 288°
2026-04-25 01:58 19.21690 -100.24959 31777 ft 462 kts 287°
2026-04-25 01:58 19.22704 -100.28137 32620 ft 457 kts 287°
2026-04-25 01:58 19.23713 -100.31306 33223 ft 457 kts 287°
2026-04-25 01:59 19.24722 -100.34479 33792 ft 458 kts 287°
2026-04-25 01:59 19.25742 -100.37691 34238 ft 460 kts 287°
2026-04-25 01:59 19.26756 -100.40884 34224 ft 459 kts 287°
2026-04-25 02:00 19.28806 -100.47350 34164 ft 454 kts 287°
2026-04-25 02:00 19.30851 -100.53809 34144 ft 454 kts 287°
2026-04-25 02:01 19.32902 -100.60297 34154 ft 456 kts 287°
2026-04-25 02:01 19.34942 -100.66757 34148 ft 454 kts 287°
2026-04-25 02:02 19.37005 -100.73284 34228 ft 456 kts 288°
2026-04-25 02:02 19.39219 -100.79698 34226 ft 453 kts 288°
2026-04-25 02:03 19.41414 -100.86035 34206 ft 454 kts 288°
2026-04-25 02:03 19.43589 -100.92339 34190 ft 452 kts 288°
2026-04-25 02:04 19.45794 -100.98750 34184 ft 453 kts 288°
2026-04-25 02:04 19.47954 -101.05041 34197 ft 453 kts 288°
2026-04-25 02:05 19.50083 -101.11254 34222 ft 452 kts 288°
2026-04-25 02:05 19.52223 -101.17506 34250 ft 452 kts 288°
2026-04-25 02:06 19.54355 -101.23745 34280 ft 454 kts 288°
2026-04-25 02:06 19.56507 -101.30048 34301 ft 452 kts 288°
2026-04-25 02:07 19.58647 -101.36327 34318 ft 451 kts 288°
2026-04-25 02:07 19.60782 -101.42598 34328 ft 452 kts 288°
2026-04-25 02:08 19.62925 -101.48901 34342 ft 450 kts 288°
2026-04-25 02:08 19.65038 -101.55123 34352 ft 451 kts 288°
2026-04-25 02:09 19.67157 -101.61374 34348 ft 451 kts 288°
2026-04-25 02:09 19.69264 -101.67592 33782 ft 445 kts 288°
2026-04-25 02:09 19.70306 -101.70674 32797 ft 451 kts 287°
2026-04-25 02:10 19.71374 -101.73831 32029 ft 452 kts 288°
2026-04-25 02:10 19.72425 -101.76943 31259 ft 453 kts 288°
2026-04-25 02:10 19.73482 -101.80072 30716 ft 448 kts 288°
2026-04-25 02:10 19.74530 -101.83177 30288 ft 441 kts 288°
2026-04-25 02:11 19.75547 -101.86189 29822 ft 436 kts 288°
2026-04-25 02:11 19.75784 -101.86894 29708 ft 435 kts 288°
2026-04-25 02:11 19.76803 -101.89919 29208 ft 430 kts 289°
2026-04-25 02:11 19.77821 -101.92942 28710 ft 440 kts 289°
2026-04-25 02:12 19.78857 -101.96022 28198 ft 445 kts 289°
2026-04-25 02:12 19.79883 -101.99071 27681 ft 444 kts 289°
2026-04-25 02:12 19.80923 -102.02164 27154 ft 441 kts 289°
2026-04-25 02:12 19.81939 -102.05187 26642 ft 437 kts 289°
2026-04-25 02:13 19.82964 -102.08240 26101 ft 433 kts 289°
2026-04-25 02:13 19.83968 -102.11232 25567 ft 429 kts 289°
2026-04-25 02:13 19.84960 -102.14192 25039 ft 426 kts 289°
2026-04-25 02:13 19.85961 -102.17178 24496 ft 423 kts 289°
2026-04-25 02:14 19.86935 -102.20087 23965 ft 421 kts 289°
2026-04-25 02:14 19.87908 -102.22993 23431 ft 420 kts 290°
2026-04-25 02:14 19.88890 -102.25931 22890 ft 419 kts 290°
2026-04-25 02:14 19.89852 -102.28806 22359 ft 416 kts 290°
2026-04-25 02:15 19.90817 -102.31696 21851 ft 413 kts 290°
2026-04-25 02:15 19.91785 -102.34592 21382 ft 411 kts 290°
2026-04-25 02:15 19.92756 -102.37495 20912 ft 411 kts 290°
2026-04-25 02:15 19.93727 -102.40404 20435 ft 411 kts 290°
2026-04-25 02:16 19.94697 -102.43310 19953 ft 409 kts 290°
2026-04-25 02:16 19.95670 -102.46230 19475 ft 406 kts 290°
2026-04-25 02:16 19.96623 -102.49094 19005 ft 404 kts 290°
2026-04-25 02:16 19.97563 -102.51920 18548 ft 402 kts 290°
2026-04-25 02:17 19.98495 -102.54724 18055 ft 403 kts 290°
2026-04-25 02:17 19.99575 -102.57455 17559 ft 400 kts 299°
2026-04-25 02:17 20.01082 -102.59886 17107 ft 396 kts 310°
2026-04-25 02:17 20.02985 -102.61970 16664 ft 391 kts 321°
2026-04-25 02:18 20.05213 -102.63638 16206 ft 387 kts 331°
2026-04-25 02:18 20.07558 -102.64964 15761 ft 383 kts 333°
2026-04-25 02:18 20.09946 -102.66269 15299 ft 380 kts 333°
2026-04-25 02:18 20.12351 -102.67416 14854 ft 376 kts 341°
2026-04-25 02:19 20.14892 -102.68046 14413 ft 372 kts 353°
2026-04-25 02:19 20.17446 -102.68048 14189 ft 361 kts
2026-04-25 02:19 20.19841 -102.67439 14161 ft 346 kts 17°
2026-04-25 02:19 20.22093 -102.66613 14153 ft 330 kts 18°
2026-04-25 02:20 20.24228 -102.65801 14148 ft 314 kts 19°
2026-04-25 02:20 20.26253 -102.64964 14154 ft 298 kts 21°
2026-04-25 02:20 20.28165 -102.64128 14155 ft 285 kts 21°
2026-04-25 02:20 20.30006 -102.63303 14153 ft 283 kts 22°
2026-04-25 02:21 20.31866 -102.62463 14159 ft 282 kts 22°
2026-04-25 02:21 20.33715 -102.61678 14149 ft 281 kts 12°
2026-04-25 02:21 20.35656 -102.61524 14166 ft 280 kts 356°
2026-04-25 02:21 20.37626 -102.61719 14159 ft 281 kts 353°
2026-04-25 02:22 20.39561 -102.61968 14160 ft 280 kts 353°
2026-04-25 02:22 20.41498 -102.62218 14157 ft 279 kts 353°
2026-04-25 02:22 20.43442 -102.62466 14162 ft 280 kts 353°
2026-04-25 02:22 20.45369 -102.62712 14162 ft 279 kts 353°
2026-04-25 02:23 20.47303 -102.62959 14169 ft 280 kts 353°
2026-04-25 02:23 20.49270 -102.63209 14168 ft 280 kts 353°
2026-04-25 02:23 20.51221 -102.63457 14171 ft 280 kts 353°
2026-04-25 02:23 20.53150 -102.63722 14167 ft 280 kts 347°
2026-04-25 02:24 20.54940 -102.64529 14178 ft 281 kts 328°
2026-04-25 02:24 20.56562 -102.65728 14181 ft 281 kts 324°
2026-04-25 02:24 20.58122 -102.66969 14184 ft 281 kts 323°
2026-04-25 02:24 20.59684 -102.68218 14181 ft 281 kts 324°
2026-04-25 02:25 20.61261 -102.69476 14183 ft 281 kts 324°
2026-04-25 02:25 20.62838 -102.70733 14187 ft 282 kts 324°
2026-04-25 02:25 20.64403 -102.71980 14188 ft 282 kts 324°
2026-04-25 02:25 20.65937 -102.73285 14176 ft 282 kts 313°
2026-04-25 02:26 20.66949 -102.75077 14173 ft 285 kts 287°
2026-04-25 02:26 20.67162 -102.76351 14181 ft 287 kts 271°
2026-04-25 02:26 20.66813 -102.78458 14027 ft 294 kts 247°
2026-04-25 02:26 20.65629 -102.80243 13686 ft 295 kts 223°
2026-04-25 02:27 20.64028 -102.81643 13376 ft 293 kts 219°
2026-04-25 02:27 20.62415 -102.82954 13082 ft 290 kts 219°
2026-04-25 02:27 20.60828 -102.84256 12797 ft 287 kts 219°
2026-04-25 02:27 20.59258 -102.85557 12522 ft 283 kts 219°
2026-04-25 02:28 20.57723 -102.86832 12288 ft 277 kts 219°
2026-04-25 02:28 20.56225 -102.88078 12011 ft 269 kts 219°
2026-04-25 02:28 20.54777 -102.89282 11745 ft 259 kts 219°
2026-04-25 02:28 20.53371 -102.90452 11505 ft 249 kts 219°
2026-04-25 02:29 20.52038 -102.91560 11272 ft 240 kts 219°
2026-04-25 02:29 20.50736 -102.92642 11042 ft 232 kts 219°
2026-04-25 02:29 20.49476 -102.93690 10827 ft 228 kts 219°
2026-04-25 02:29 20.48223 -102.94731 10615 ft 226 kts 219°
2026-04-25 02:30 20.46994 -102.95752 10395 ft 225 kts 219°
2026-04-25 02:30 20.45767 -102.96770 10172 ft 223 kts 219°
2026-04-25 02:30 20.44538 -102.97791 9955 ft 221 kts 219°
2026-04-25 02:30 20.43345 -102.98781 9747 ft 213 kts 219°
2026-04-25 02:31 20.42187 -102.99742 9554 ft 209 kts 218°
2026-04-25 02:31 20.41087 -103.00757 9348 ft 207 kts 233°
2026-04-25 02:31 20.40536 -103.02144 9137 ft 207 kts 264°
2026-04-25 02:31 20.40688 -103.03646 9081 ft 206 kts 284°
2026-04-25 02:32 20.41152 -103.05094 9074 ft 206 kts 290°
2026-04-25 02:32 20.41719 -103.06535 9042 ft 209 kts 292°
2026-04-25 02:32 20.42329 -103.07983 8791 ft 208 kts 294°
2026-04-25 02:32 20.42927 -103.09361 8562 ft 201 kts 294°
2026-04-25 02:33 20.43510 -103.10693 8346 ft 195 kts 294°
2026-04-25 02:33 20.44063 -103.11974 8133 ft 189 kts 294°
2026-04-25 02:33 20.44607 -103.13244 7935 ft 190 kts 294°
2026-04-25 02:33 20.45149 -103.14517 7713 ft 188 kts 294°
2026-04-25 02:34 20.45686 -103.15781 7486 ft 180 kts 294°
2026-04-25 02:34 20.46184 -103.16951 7278 ft 169 kts 294°
2026-04-25 02:34 20.46672 -103.18102 7078 ft 164 kts 294°
2026-04-25 02:34 20.47148 -103.19225 6880 ft 162 kts 294°
2026-04-25 02:35 20.47616 -103.20330 6685 ft 161 kts 294°
2026-04-25 02:35 20.48068 -103.21401 6493 ft 160 kts 294°
2026-04-25 02:35 20.48525 -103.22479 6299 ft 159 kts 294°
2026-04-25 02:35 20.48982 -103.23560 6103 ft 158 kts 294°
2026-04-25 02:36 20.49435 -103.24631 5911 ft 158 kts 294°
2026-04-25 02:36 20.49888 -103.25700 5716 ft 158 kts 294°
2026-04-25 02:36 20.50334 -103.26755 5530 ft 157 kts 294°
2026-04-25 02:36 20.50786 -103.27822 5342 ft 157 kts 294°
2026-04-25 02:37 20.51241 -103.28883 5145 ft 157 kts 294°
2026-04-25 02:37 20.51688 -103.29936 5037 ft 145 kts 294°
2026-04-25 02:37 20.52035 -103.30759 5040 ft 101 kts 294°
2026-04-25 02:37 20.52249 -103.31274 5041 ft 39 kts 294°
2026-04-25 02:38 20.52376 -103.31486 5041 ft 31 kts 316°
2026-04-25 02:38 20.52501 -103.31585 5040 ft 17 kts 339°
2026-04-25 02:38 20.52607 -103.31573 5039 ft 14 kts 25°
2026-04-25 02:38 20.52696 -103.31527 5038 ft 13 kts 26°
2026-04-25 02:39 20.52762 -103.31477 5038 ft 10 kts 75°
2026-04-25 02:39 20.52744 -103.31406 5038 ft 9 kts 115°
2026-04-25 02:39 20.52712 -103.31337 5038 ft 11 kts 116°
2026-04-25 02:39 20.52676 -103.31252 5038 ft 13 kts 113°
2026-04-25 02:40 20.52638 -103.31155 5038 ft 15 kts 112°
2026-04-25 02:40 20.52593 -103.31046 5038 ft 16 kts 114°
2026-04-25 02:40 20.52556 -103.30956 5037 ft 13 kts 115°
2026-04-25 02:40 20.52513 -103.30857 5037 ft 15 kts 114°
2026-04-25 02:41 20.52467 -103.30745 5037 ft 17 kts 114°
2026-04-25 02:41 20.52437 -103.30674 5037 ft 17 kts 114°
2026-04-25 02:41 20.52384 -103.30548 5036 ft 18 kts 115°
2026-04-25 02:41 20.52328 -103.30418 5036 ft 19 kts 114°
2026-04-25 02:42 20.52270 -103.30280 5036 ft 20 kts 112°
2026-04-25 02:42 20.52210 -103.30137 5035 ft 20 kts 114°
2026-04-25 02:42 20.52155 -103.30006 5035 ft 17 kts 113°
2026-04-25 02:42 20.52119 -103.29919 5035 ft 2 kts 115°
2026-04-25 02:43 20.52107 -103.29893 5035 ft 6 kts 115°
2026-04-25 02:43 20.52086 -103.29833 5035 ft 10 kts 95°
2026-04-25 02:43 20.52131 -103.29791 5035 ft 8 kts 19°
2026-04-25 02:43 20.52185 -103.29771 5034 ft 7 kts 19°
2026-04-25 02:44 20.52212 -103.29730 5034 ft 6 kts 93°
2026-04-25 02:44 20.52201 -103.29682 5034 ft 6 kts 105°
2026-04-25 02:44 20.52204 -103.29661 5034 ft 1 kts 31°
2026-04-25 02:44 20.52208 -103.29660 5034 ft 0 kts
2026-04-25 02:45 20.52227 -103.29658 5034 ft 5 kts
2026-04-25 02:45 20.52257 -103.29650 5034 ft 3 kts 16°
2026-04-25 02:45 20.52266 -103.29648 5034 ft 0 kts 17°
2026-04-25 02:45 20.52267 -103.29647 5034 ft 1 kts 19°
2026-04-25 02:46 20.52274 -103.29645 5034 ft 1 kts 19°
2026-04-25 02:46 20.52276 -103.29644 5034 ft 0 kts 19°